TimeCST,TemperatureF,Dew PointF,Humidity,Sea Level PressureIn,VisibilityMPH,Wind Direction,Wind SpeedMPH,Gust SpeedMPH,PrecipitationIn,Events,Conditions,WindDirDegrees,DateUTC
12:15 AM,55.4,35.6,47,30.20,10.0,SSE,10.4,-,N/A,,Overcast,150,2012-11-19 06:15:00
12:35 AM,55.4,35.6,47,30.20,10.0,SSE,10.4,-,N/A,,Overcast,150,2012-11-19 06:35:00
12:55 AM,55.4,35.6,47,30.20,10.0,SSE,10.4,-,N/A,,Mostly Cloudy,150,2012-11-19 06:55:00
1:15 AM,55.4,35.6,47,30.20,10.0,SSE,9.2,-,N/A,,Mostly Cloudy,150,2012-11-19 07:15:00
1:35 AM,55.4,35.6,47,30.20,10.0,SSE,5.8,-,N/A,,Scattered Clouds,150,2012-11-19 07:35:00
1:55 AM,55.4,35.6,47,30.21,10.0,SSE,8.1,-,N/A,,Mostly Cloudy,150,2012-11-19 07:55:00
2:15 AM,55.4,37.4,51,30.20,10.0,SSE,6.9,-,N/A,,Mostly Cloudy,150,2012-11-19 08:15:00
2:35 AM,55.4,37.4,51,30.20,10.0,SE,8.1,-,N/A,,Mostly Cloudy,140,2012-11-19 08:35:00
2:55 AM,55.4,35.6,47,30.20,10.0,SE,6.9,-,N/A,,Mostly Cloudy,140,2012-11-19 08:55:00
3:15 AM,55.4,35.6,47,30.20,10.0,SE,8.1,-,N/A,,Mostly Cloudy,140,2012-11-19 09:15:00
3:35 AM,55.4,37.4,51,30.20,10.0,SSE,8.1,-,N/A,,Scattered Clouds,150,2012-11-19 09:35:00
3:55 AM,55.4,37.4,51,30.20,10.0,SE,4.6,-,N/A,,Scattered Clouds,140,2012-11-19 09:55:00
4:15 AM,55.4,35.6,47,30.19,10.0,SE,5.8,-,N/A,,Overcast,140,2012-11-19 10:15:00
4:35 AM,55.4,37.4,51,30.19,10.0,SE,4.6,-,N/A,,Mostly Cloudy,140,2012-11-19 10:35:00
4:55 AM,55.4,37.4,51,30.19,10.0,SE,4.6,-,N/A,,Mostly Cloudy,140,2012-11-19 10:55:00
5:15 AM,55.4,37.4,51,30.19,10.0,SE,5.8,-,N/A,,Overcast,140,2012-11-19 11:15:00
5:35 AM,55.4,39.2,54,30.19,10.0,SSE,4.6,-,N/A,,Overcast,150,2012-11-19 11:35:00
5:55 AM,55.4,41.0,58,30.19,10.0,SSE,6.9,-,N/A,,Overcast,150,2012-11-19 11:55:00
6:15 AM,55.4,41.0,58,30.20,10.0,SSE,6.9,-,N/A,,Overcast,150,2012-11-19 12:15:00
6:35 AM,55.4,42.8,63,30.20,10.0,SSE,8.1,-,N/A,,Overcast,150,2012-11-19 12:35:00
6:55 AM,55.4,42.8,63,30.21,10.0,SSE,6.9,-,N/A,,Overcast,160,2012-11-19 12:55:00
7:15 AM,55.4,42.8,63,30.21,10.0,SSE,5.8,-,N/A,,Overcast,150,2012-11-19 13:15:00
7:35 AM,55.4,42.8,63,30.22,10.0,SSE,5.8,-,N/A,,Overcast,150,2012-11-19 13:35:00
7:55 AM,55.4,44.6,67,30.22,10.0,SSE,8.1,-,N/A,,Overcast,150,2012-11-19 13:55:00
8:15 AM,55.4,44.6,67,30.22,10.0,SSE,8.1,-,N/A,,Overcast,150,2012-11-19 14:15:00
8:35 AM,55.4,44.6,67,30.23,10.0,SSE,10.4,-,N/A,,Overcast,150,2012-11-19 14:35:00
8:55 AM,55.4,44.6,67,30.23,10.0,SSE,10.4,-,N/A,,Overcast,160,2012-11-19 14:55:00
9:15 AM,55.4,46.4,72,30.23,10.0,SSE,11.5,-,N/A,,Overcast,160,2012-11-19 15:15:00
9:35 AM,57.2,46.4,67,30.23,10.0,South,9.2,-,N/A,,Overcast,170,2012-11-19 15:35:00
9:55 AM,59.0,48.2,67,30.22,10.0,South,10.4,-,N/A,,Overcast,170,2012-11-19 15:55:00
10:15 AM,60.8,50.0,68,30.22,10.0,South,11.5,-,N/A,,Scattered Clouds,170,2012-11-19 16:15:00
10:35 AM,64.4,53.6,68,30.21,10.0,South,10.4,-,N/A,,Clear,170,2012-11-19 16:35:00
10:55 AM,64.4,51.8,64,30.21,10.0,South,13.8,18.4,N/A,,Clear,170,2012-11-19 16:55:00
11:15 AM,66.2,51.8,60,30.20,10.0,South,13.8,18.4,N/A,,Clear,170,2012-11-19 17:15:00
11:35 AM,68.0,53.6,60,30.20,10.0,South,11.5,17.3,N/A,,Clear,180,2012-11-19 17:35:00
11:55 AM,69.8,53.6,56,30.18,10.0,South,11.5,-,N/A,,Clear,170,2012-11-19 17:55:00
12:15 PM,69.8,53.6,56,30.18,10.0,South,12.7,18.4,N/A,,Clear,180,2012-11-19 18:15:00
12:35 PM,69.8,53.6,56,30.17,10.0,SSW,11.5,19.6,N/A,,Clear,200,2012-11-19 18:35:00
12:55 PM,69.8,53.6,56,30.15,10.0,SSE,15.0,19.6,N/A,,Clear,160,2012-11-19 18:55:00
1:15 PM,69.8,53.6,56,30.15,10.0,South,12.7,20.7,N/A,,Scattered Clouds,170,2012-11-19 19:15:00
1:35 PM,69.8,53.6,56,30.14,10.0,South,13.8,20.7,N/A,,Scattered Clouds,180,2012-11-19 19:35:00
1:55 PM,69.8,53.6,56,30.13,10.0,South,15.0,18.4,N/A,,Scattered Clouds,170,2012-11-19 19:55:00
2:15 PM,69.8,53.6,56,30.13,10.0,South,12.7,17.3,N/A,,Scattered Clouds,170,2012-11-19 20:15:00
2:35 PM,69.8,53.6,56,30.12,10.0,South,10.4,-,N/A,,Scattered Clouds,180,2012-11-19 20:35:00
2:55 PM,69.8,53.6,56,30.12,10.0,South,8.1,-,N/A,,Clear,170,2012-11-19 20:55:00
3:15 PM,69.8,53.6,56,30.12,10.0,South,10.4,-,N/A,,Clear,180,2012-11-19 21:15:00
3:35 PM,69.8,53.6,56,30.12,10.0,SSE,10.4,-,N/A,,Clear,160,2012-11-19 21:35:00
3:55 PM,69.8,53.6,56,30.12,10.0,SSE,8.1,-,N/A,,Scattered Clouds,160,2012-11-19 21:55:00
4:15 PM,69.8,53.6,56,30.12,10.0,SSE,9.2,-,N/A,,Scattered Clouds,150,2012-11-19 22:15:00
4:35 PM,69.8,55.4,60,30.12,10.0,SSE,10.4,-,N/A,,Scattered Clouds,150,2012-11-19 22:35:00
4:55 PM,68.0,53.6,60,30.13,10.0,SE,5.8,-,N/A,,Clear,130,2012-11-19 22:55:00
5:15 PM,64.4,53.6,68,30.13,10.0,SE,9.2,-,N/A,,Scattered Clouds,140,2012-11-19 23:15:00
5:35 PM,64.4,53.6,68,30.13,10.0,SE,6.9,-,N/A,,Scattered Clouds,130,2012-11-19 23:35:00
5:55 PM,62.6,53.6,72,30.14,10.0,SE,5.8,-,N/A,,Scattered Clouds,140,2012-11-19 23:55:00
6:15 PM,60.8,51.8,72,30.15,10.0,SE,4.6,-,N/A,,Scattered Clouds,130,2012-11-20 00:15:00
6:35 PM,59.0,51.8,77,30.15,10.0,ESE,4.6,-,N/A,,Clear,120,2012-11-20 00:35:00
6:55 PM,57.2,50.0,77,30.16,10.0,ESE,4.6,-,N/A,,Clear,120,2012-11-20 00:55:00
7:15 PM,57.2,51.8,82,30.16,10.0,SE,4.6,-,N/A,,Clear,140,2012-11-20 01:15:00
7:35 PM,55.4,50.0,82,30.17,10.0,SE,4.6,-,N/A,,Clear,140,2012-11-20 01:35:00
7:55 PM,55.4,50.0,82,30.18,10.0,SE,4.6,-,N/A,,Clear,140,2012-11-20 01:55:00
8:15 PM,55.4,50.0,82,30.18,10.0,SE,3.5,-,N/A,,Clear,140,2012-11-20 02:15:00
8:35 PM,55.4,50.0,82,30.18,10.0,SE,3.5,-,N/A,,Clear,130,2012-11-20 02:35:00
8:55 PM,55.4,50.0,82,30.18,10.0,SE,3.5,-,N/A,,Clear,140,2012-11-20 02:55:00
9:15 PM,55.4,51.8,88,30.17,10.0,SSE,3.5,-,N/A,,Clear,150,2012-11-20 03:15:00
9:35 PM,55.4,51.8,88,30.18,10.0,SE,4.6,-,N/A,,Clear,140,2012-11-20 03:35:00
9:55 PM,55.4,51.8,88,30.17,10.0,SE,4.6,-,N/A,,Clear,130,2012-11-20 03:55:00
10:15 PM,55.4,50.0,82,30.16,10.0,ESE,4.6,-,N/A,,Clear,120,2012-11-20 04:15:00
10:35 PM,55.4,51.8,88,30.16,10.0,ESE,3.5,-,N/A,,Clear,110,2012-11-20 04:35:00
10:55 PM,53.6,51.8,94,30.16,10.0,SE,4.6,-,N/A,,Clear,140,2012-11-20 04:55:00
11:15 PM,51.8,50.0,94,30.17,10.0,SE,3.5,-,N/A,,Clear,130,2012-11-20 05:15:00
11:35 PM,51.8,50.0,94,30.17,10.0,East,4.6,-,N/A,,Clear,80,2012-11-20 05:35:00
11:55 PM,51.8,50.0,94,30.16,10.0,East,5.8,-,N/A,,Clear,100,2012-11-20 05:55:00